Fond du Lac, WI

9:43 PM CDT on March 24, 2017 (GMT -0500)
Fond du Lac County

Weather History for KFLD - November, 2012

Change the Weather History Date:

Thursday, November 29, 2012

  Actual Average Record
Temperature  
Mean Temperature 37 °F -  
Max Temperature 46 °F 36 °F 64 °F (1998)
Min Temperature 28 °F 21 °F -5 °F (1976)
Degree Days  
Heating Degree Days 28    
Moisture  
Dew Point 26 °F    
Average Humidity 69    
Maximum Humidity 89    
Minimum Humidity 48    
Precipitation  
Precipitation 0.00 in - - ()
Sea Level Pressure  
Sea Level Pressure 30.16 in    
Wind  
Wind Speed 8 mph (ESE)    
Max Wind Speed 13 mph    
Max Gust Speed -    
Visibility 10 miles    
Events      
Averages and records for this station are not official NWS values.
T = Trace of Precipitation, MM = Missing Value Source: NWS Daily Summary

Daily Weather History Graph

Daily Weather History Graph

Search for Another Location

Airport or City:

Trip Planner

Search our weather history database for the weather conditions in past years. The results will help you decide how hot, cold, wet, or windy it might be!

Date:

Astronomy

Nov. 29, 2012 Rise Set
Actual Time 7:06 AM CST 4:18 PM CST
Civil Twilight 6:34 AM CST 4:50 PM CST
Nautical Twilight 5:58 AM CST 5:26 PM CST
Astronomical Twilight 5:23 AM CST 6:00 PM CST
Moon 5:21 PM CST (11/29) 7:53 AM CST (11/29)
Length of Visible Light 10h 16m
Length of Day
9h 12m
Full, 99% of the Moon is Illuminated
Nov 29
Full
Dec 6
Last Quarter
Dec 13
New
Dec 19
First Quarter
Dec 28
Full

Hourly Weather History & Observations

Time (CST) Temp. Windchill Dew Point Humidity Pressure Visibility Wind Dir Wind Speed Gust Speed Precip Events Conditions
12:53 AM 35.1 °F 28.6 °F 19.9 °F 54% 30.20 in 10.0 mi SW 8.1 mph - N/A   Clear
1:53 AM 35.1 °F 27.4 °F 21.0 °F 57% 30.20 in 10.0 mi SSW 10.4 mph - N/A   Clear
2:53 AM 34.0 °F 26.6 °F 21.0 °F 59% 30.20 in 10.0 mi SSW 9.2 mph - N/A   Clear
3:53 AM 33.1 °F 26.9 °F 21.9 °F 64% 30.18 in 10.0 mi South 6.9 mph - N/A   Clear
4:53 AM 32.0 °F 26.4 °F 21.9 °F 66% 30.19 in 10.0 mi South 5.8 mph - N/A   Clear
5:53 AM 30.9 °F 23.5 °F 23.0 °F 72% 30.17 in 10.0 mi South 8.1 mph - N/A   Clear
6:53 AM 28.0 °F 21.7 °F 21.0 °F 75% 30.18 in 10.0 mi South 5.8 mph - N/A   Clear
7:53 AM 30.0 °F 24.1 °F 23.0 °F 75% 30.17 in 10.0 mi South 5.8 mph - N/A   Clear
8:53 AM 36.0 °F 30.3 °F 25.0 °F 64% 30.17 in 10.0 mi SSW 6.9 mph - N/A   Clear
9:53 AM 37.9 °F 30.9 °F 25.0 °F 60% 30.17 in 10.0 mi SSW 10.4 mph - N/A   Clear
10:53 AM 41.0 °F 37.1 °F 26.1 °F 55% 30.17 in 10.0 mi WSW 5.8 mph - N/A   Clear
11:53 AM 44.1 °F 42.5 °F 27.0 °F 51% 30.14 in 10.0 mi South 3.5 mph - N/A   Clear
12:53 PM 46.9 °F - 28.0 °F 48% 30.12 in 10.0 mi Calm Calm - N/A   Clear
1:53 PM 46.9 °F - 28.0 °F 48% 30.10 in - Calm Calm - N/A   Clear
2:53 PM 44.1 °F 41.5 °F 28.0 °F 53% 30.10 in 10.0 mi NNE 4.6 mph - N/A   Clear
3:53 PM 39.0 °F 32.3 °F 27.0 °F 62% 30.12 in 10.0 mi NNE 10.4 mph - N/A   Clear
4:53 PM 37.9 °F 33.5 °F 28.0 °F 68% 30.13 in 10.0 mi ENE 5.8 mph - N/A   Clear
5:53 PM 36.0 °F 29.6 °F 30.0 °F 79% 30.16 in 10.0 mi ENE 8.1 mph - N/A   Clear
6:53 PM 36.0 °F 29.0 °F 28.9 °F 76% 30.17 in 10.0 mi NE 9.2 mph - N/A   Clear
7:53 PM 34.0 °F 26.0 °F 30.0 °F 85% 30.18 in 10.0 mi NNE 10.4 mph - N/A   Clear
8:53 PM 34.0 °F 28.0 °F 30.9 °F 89% 30.18 in 10.0 mi NE 6.9 mph - N/A   Mostly Cloudy
9:46 PM 33.8 °F 25.3 °F 30.2 °F 87% 30.15 in 10.0 mi NNE 11.5 mph - N/A   Overcast
9:53 PM 34.0 °F 25.0 °F 30.9 °F 89% 30.17 in 10.0 mi NE 12.7 mph - N/A   Overcast
10:53 PM 35.1 °F 27.9 °F 30.9 °F 85% 30.17 in 10.0 mi NNE 9.2 mph - N/A   Overcast
11:19 PM 35.6 °F 29.2 °F 30.2 °F 81% 30.14 in 10.0 mi NE 8.1 mph - N/A   Overcast
11:53 PM 36.0 °F 29.6 °F 32.0 °F 86% 30.15 in 10.0 mi NE 8.1 mph - N/A   Overcast